Time,TemperatureF,DewpointF,PressureIn,WindDirection,WindDirectionDegrees,WindSpeedMPH,WindSpeedGustMPH,Humidity,HourlyPrecipIn,Conditions,Clouds,dailyrainin,SoftwareType,DateUTC
2013-04-22 00:01:00,52.9,33.7,29.32,South,180,0.0,0.0,48,0.00,,---,0.00,VWS V14.00,2013-04-22 05:01:00,
2013-04-22 00:04:00,52.9,33.7,29.32,South,180,0.0,0.0,48,0.00,,---,0.00,VWS V14.00,2013-04-22 05:04:00,
2013-04-22 00:07:00,52.9,33.7,29.32,South,180,0.0,0.0,48,0.00,,---,0.00,VWS V14.00,2013-04-22 05:07:00,
2013-04-22 00:13:00,52.5,33.9,29.32,South,180,0.0,0.0,49,0.00,,---,0.00,VWS V14.00,2013-04-22 05:13:00,
2013-04-22 00:16:00,52.5,33.9,29.32,South,180,0.0,0.0,49,0.00,,---,0.00,VWS V14.00,2013-04-22 05:16:00,
2013-04-22 00:19:00,52.3,33.7,29.32,South,180,0.0,0.0,49,0.00,,---,0.00,VWS V14.00,2013-04-22 05:19:00,
2013-04-22 00:20:00,52.3,33.7,29.32,South,180,0.0,0.0,49,0.00,,---,0.00,VWS V14.00,2013-04-22 05:20:00,
2013-04-22 00:25:00,52.3,33.7,29.32,South,180,0.0,0.0,49,0.00,,---,0.00,VWS V14.00,2013-04-22 05:25:00,
2013-04-22 00:28:00,52.0,33.9,29.32,South,180,0.0,0.0,50,0.00,,---,0.00,VWS V14.00,2013-04-22 05:28:00,
2013-04-22 00:31:00,52.0,33.9,29.32,South,180,0.0,0.0,50,0.00,,---,0.00,VWS V14.00,2013-04-22 05:31:00,
2013-04-22 00:34:00,51.8,34.2,29.32,South,180,0.0,0.0,51,0.00,,---,0.00,VWS V14.00,2013-04-22 05:34:00,
2013-04-22 00:35:00,51.8,34.2,29.32,South,180,0.0,0.0,51,0.00,,---,0.00,VWS V14.00,2013-04-22 05:35:00,
2013-04-22 00:40:00,51.4,34.4,29.32,South,180,0.0,0.0,52,0.00,,---,0.00,VWS V14.00,2013-04-22 05:40:00,
2013-04-22 00:43:00,51.2,34.2,29.32,South,180,0.0,0.0,52,0.00,,---,0.00,VWS V14.00,2013-04-22 05:43:00,
2013-04-22 00:46:00,51.2,34.2,29.32,South,180,0.0,0.0,52,0.00,,---,0.00,VWS V14.00,2013-04-22 05:46:00,
2013-04-22 00:50:00,51.2,34.2,29.32,South,180,0.0,0.0,52,0.00,,---,0.00,VWS V14.00,2013-04-22 05:50:00,
2013-04-22 00:52:00,50.9,33.9,29.32,South,180,0.0,0.0,52,0.00,,---,0.00,VWS V14.00,2013-04-22 05:52:00,
2013-04-22 00:55:00,50.9,33.9,29.32,South,180,0.0,0.0,52,0.00,,---,0.00,VWS V14.00,2013-04-22 05:55:00,
2013-04-22 00:58:00,50.9,33.9,29.32,South,180,0.0,0.0,52,0.00,,---,0.00,VWS V14.00,2013-04-22 05:58:00,
2013-04-22 01:01:00,50.3,33.9,29.32,South,180,0.0,0.0,53,0.00,,---,0.00,VWS V14.00,2013-04-22 06:01:00,
2013-04-22 01:05:00,50.3,33.9,29.32,South,180,0.0,0.0,53,0.00,,---,0.00,VWS V14.00,2013-04-22 06:05:00,
2013-04-22 01:07:00,50.2,34.2,29.32,South,180,0.0,0.0,54,0.00,,---,0.00,VWS V14.00,2013-04-22 06:07:00,
2013-04-22 01:13:00,50.2,34.2,29.32,South,180,0.0,0.0,54,0.00,,---,0.00,VWS V14.00,2013-04-22 06:13:00,
2013-04-22 01:16:00,49.8,34.3,29.32,South,180,0.0,0.0,55,0.00,,---,0.00,VWS V14.00,2013-04-22 06:16:00,
2013-04-22 01:19:00,49.8,34.3,29.32,South,180,0.0,0.0,55,0.00,,---,0.00,VWS V14.00,2013-04-22 06:19:00,
2013-04-22 01:22:00,49.8,34.3,29.32,South,180,0.0,0.0,55,0.00,,---,0.00,VWS V14.00,2013-04-22 06:22:00,
2013-04-22 01:28:00,49.4,34.9,29.32,South,180,0.0,0.0,57,0.00,,---,0.00,VWS V14.00,2013-04-22 06:28:00,
2013-04-22 01:31:00,49.4,34.9,29.32,South,180,0.0,0.0,57,0.00,,---,0.00,VWS V14.00,2013-04-22 06:31:00,
2013-04-22 01:34:00,49.3,35.6,29.32,South,180,0.0,0.0,59,0.00,,---,0.00,VWS V14.00,2013-04-22 06:34:00,
2013-04-22 01:35:00,49.3,35.6,29.32,South,180,0.0,0.0,59,0.00,,---,0.00,VWS V14.00,2013-04-22 06:35:00,
2013-04-22 01:37:00,49.3,35.6,29.32,South,180,0.0,0.0,59,0.00,,---,0.00,VWS V14.00,2013-04-22 06:37:00,
2013-04-22 01:40:00,48.9,35.6,29.32,South,180,0.0,0.0,60,0.00,,---,0.00,VWS V14.00,2013-04-22 06:40:00,
2013-04-22 01:43:00,48.7,35.5,29.32,South,180,0.0,0.0,60,0.00,,---,0.00,VWS V14.00,2013-04-22 06:43:00,
2013-04-22 01:49:00,48.4,36.0,29.32,South,180,0.0,0.0,62,0.00,,---,0.00,VWS V14.00,2013-04-22 06:49:00,
2013-04-22 01:50:00,48.4,36.0,29.32,South,180,0.0,0.0,62,0.00,,---,0.00,VWS V14.00,2013-04-22 06:50:00,
2013-04-22 01:52:00,48.2,36.2,29.32,South,180,0.0,0.0,63,0.00,,---,0.00,VWS V14.00,2013-04-22 06:52:00,
2013-04-22 01:58:00,47.8,37.0,29.32,South,180,0.0,0.0,66,0.00,,---,0.00,VWS V14.00,2013-04-22 06:58:00,
2013-04-22 02:01:00,47.6,37.2,29.32,South,180,0.0,0.0,67,0.00,,---,0.00,VWS V14.00,2013-04-22 07:01:00,
2013-04-22 02:04:00,47.6,37.2,29.32,South,180,0.0,0.0,67,0.00,,---,0.00,VWS V14.00,2013-04-22 07:04:00,
2013-04-22 02:05:00,47.6,37.2,29.32,South,180,0.0,0.0,67,0.00,,---,0.00,VWS V14.00,2013-04-22 07:05:00,
2013-04-22 02:10:00,47.1,37.1,29.32,South,180,0.0,0.0,68,0.00,,---,0.00,VWS V14.00,2013-04-22 07:10:00,
2013-04-22 02:13:00,47.1,37.1,29.32,South,180,0.0,0.0,68,0.00,,---,0.00,VWS V14.00,2013-04-22 07:13:00,
2013-04-22 02:16:00,46.9,37.3,29.32,South,180,0.0,0.0,69,0.00,,---,0.00,VWS V14.00,2013-04-22 07:16:00,
2013-04-22 02:22:00,46.9,37.3,29.32,South,180,0.0,0.0,69,0.00,,---,0.00,VWS V14.00,2013-04-22 07:22:00,
2013-04-22 02:25:00,46.6,37.3,29.32,South,180,0.0,0.0,70,0.00,,---,0.00,VWS V14.00,2013-04-22 07:25:00,
2013-04-22 02:28:00,46.6,37.3,29.32,South,180,0.0,0.0,70,0.00,,---,0.00,VWS V14.00,2013-04-22 07:28:00,
2013-04-22 02:31:00,46.4,37.5,29.32,South,180,0.0,0.0,71,0.00,,---,0.00,VWS V14.00,2013-04-22 07:31:00,
2013-04-22 02:34:00,46.4,37.5,29.32,South,180,0.0,0.0,71,0.00,,---,0.00,VWS V14.00,2013-04-22 07:34:00,
2013-04-22 02:35:00,46.4,37.5,29.32,South,180,0.0,0.0,71,0.00,,---,0.00,VWS V14.00,2013-04-22 07:35:00,
2013-04-22 02:37:00,46.4,37.5,29.32,South,180,0.0,0.0,71,0.00,,---,0.00,VWS V14.00,2013-04-22 07:37:00,
2013-04-22 02:40:00,46.2,37.3,29.32,South,180,0.0,0.0,71,0.00,,---,0.00,VWS V14.00,2013-04-22 07:40:00,
2013-04-22 02:43:00,46.2,37.3,29.29,South,180,0.0,0.0,71,0.00,,---,0.00,VWS V14.00,2013-04-22 07:43:00,
2013-04-22 02:46:00,46.2,37.3,29.29,South,180,0.0,0.0,71,0.00,,---,0.00,VWS V14.00,2013-04-22 07:46:00,
2013-04-22 02:49:00,46.4,37.1,29.29,South,180,0.0,0.0,70,0.00,,---,0.00,VWS V14.00,2013-04-22 07:49:00,
2013-04-22 02:52:00,46.4,36.8,29.29,South,180,0.0,0.0,69,0.00,,---,0.00,VWS V14.00,2013-04-22 07:52:00,
2013-04-22 02:55:00,46.4,36.8,29.29,South,180,0.0,0.0,69,0.00,,---,0.00,VWS V14.00,2013-04-22 07:55:00,
2013-04-22 02:58:00,46.4,36.4,29.29,South,180,0.0,0.0,68,0.00,,---,0.00,VWS V14.00,2013-04-22 07:58:00,
2013-04-22 03:01:00,46.4,36.4,29.29,South,180,0.0,0.0,68,0.00,,---,0.00,VWS V14.00,2013-04-22 08:01:00,
2013-04-22 03:04:00,46.6,36.2,29.29,South,180,0.0,0.0,67,0.00,,---,0.00,VWS V14.00,2013-04-22 08:04:00,
2013-04-22 03:05:00,46.6,36.2,29.29,South,180,0.0,0.0,67,0.00,,---,0.00,VWS V14.00,2013-04-22 08:05:00,
2013-04-22 03:07:00,46.4,36.0,29.29,South,180,0.0,0.0,67,0.00,,---,0.00,VWS V14.00,2013-04-22 08:07:00,
2013-04-22 03:10:00,46.4,36.0,29.29,South,180,0.0,0.0,67,0.00,,---,0.00,VWS V14.00,2013-04-22 08:10:00,
2013-04-22 03:13:00,46.0,36.8,29.29,South,180,0.0,0.0,70,0.00,,---,0.00,VWS V14.00,2013-04-22 08:13:00,
2013-04-22 03:16:00,45.8,37.0,29.29,South,180,0.0,0.0,71,0.00,,---,0.00,VWS V14.00,2013-04-22 08:16:00,
2013-04-22 03:19:00,45.8,37.0,29.29,South,180,0.0,0.0,71,0.00,,---,0.00,VWS V14.00,2013-04-22 08:19:00,
2013-04-22 03:20:00,45.8,37.0,29.29,South,180,0.0,0.0,71,0.00,,---,0.00,VWS V14.00,2013-04-22 08:20:00,
2013-04-22 03:25:00,45.3,36.8,29.29,South,180,0.0,0.0,72,0.00,,---,0.00,VWS V14.00,2013-04-22 08:25:00,
2013-04-22 03:28:00,45.3,36.8,29.29,South,180,0.0,0.0,72,0.00,,---,0.00,VWS V14.00,2013-04-22 08:28:00,
2013-04-22 03:31:00,45.1,37.0,29.29,South,180,0.0,0.0,73,0.00,,---,0.00,VWS V14.00,2013-04-22 08:31:00,
2013-04-22 03:35:00,44.9,37.2,29.29,South,180,0.0,0.0,74,0.00,,---,0.00,VWS V14.00,2013-04-22 08:35:00,
2013-04-22 03:37:00,44.9,37.2,29.29,South,180,0.0,0.0,74,0.00,,---,0.00,VWS V14.00,2013-04-22 08:37:00,
2013-04-22 03:40:00,44.6,37.2,29.29,South,180,0.0,0.0,75,0.00,,---,0.00,VWS V14.00,2013-04-22 08:40:00,
2013-04-22 03:43:00,44.6,37.2,29.29,South,180,0.0,0.0,75,0.00,,---,0.00,VWS V14.00,2013-04-22 08:43:00,
2013-04-22 03:46:00,44.6,37.2,29.29,South,180,0.0,0.0,75,0.00,,---,0.00,VWS V14.00,2013-04-22 08:46:00,
2013-04-22 03:49:00,44.4,37.0,29.29,South,180,0.0,0.0,75,0.00,,---,0.00,VWS V14.00,2013-04-22 08:49:00,
2013-04-22 03:50:00,44.4,37.0,29.29,South,180,0.0,0.0,75,0.00,,---,0.00,VWS V14.00,2013-04-22 08:50:00,
2013-04-22 03:52:00,44.4,37.0,29.29,South,180,0.0,0.0,75,0.00,,---,0.00,VWS V14.00,2013-04-22 08:52:00,
2013-04-22 03:55:00,44.4,37.0,29.26,South,180,0.0,0.0,75,0.00,,---,0.00,VWS V14.00,2013-04-22 08:55:00,
2013-04-22 03:58:00,44.4,37.0,29.26,South,180,0.0,0.0,75,0.00,,---,0.00,VWS V14.00,2013-04-22 08:58:00,
2013-04-22 04:01:00,44.4,37.0,29.26,South,180,0.0,0.0,75,0.00,,---,0.00,VWS V14.00,2013-04-22 09:01:00,
2013-04-22 04:04:00,44.4,37.0,29.26,South,180,0.0,0.0,75,0.00,,---,0.00,VWS V14.00,2013-04-22 09:04:00,
2013-04-22 04:10:00,44.4,36.7,29.26,South,180,0.0,0.0,74,0.00,,---,0.00,VWS V14.00,2013-04-22 09:10:00,
2013-04-22 04:13:00,44.6,36.8,29.26,South,180,0.0,0.0,74,0.00,,---,0.00,VWS V14.00,2013-04-22 09:13:00,
2013-04-22 04:19:00,44.4,36.7,29.26,South,180,0.0,0.0,74,0.00,,---,0.00,VWS V14.00,2013-04-22 09:19:00,
2013-04-22 04:25:00,44.0,37.0,29.26,South,180,0.0,0.0,76,0.00,,---,0.00,VWS V14.00,2013-04-22 09:25:00,
2013-04-22 04:29:00,44.0,37.0,29.26,South,180,0.0,0.0,76,0.00,,---,0.00,VWS V14.00,2013-04-22 09:29:00,
2013-04-22 04:32:00,43.9,37.1,29.26,South,180,0.0,0.0,77,0.00,,---,0.00,VWS V14.00,2013-04-22 09:32:00,
2013-04-22 04:35:00,43.9,37.1,29.26,South,180,0.0,0.0,77,0.00,,---,0.00,VWS V14.00,2013-04-22 09:35:00,
2013-04-22 04:41:00,43.7,37.0,29.26,South,180,0.0,0.0,77,0.00,,---,0.00,VWS V14.00,2013-04-22 09:41:00,
2013-04-22 04:44:00,43.9,37.1,29.26,South,180,0.0,0.0,77,0.00,,---,0.00,VWS V14.00,2013-04-22 09:44:00,
2013-04-22 04:50:00,43.7,37.0,29.26,South,180,0.0,0.0,77,0.00,,---,0.00,VWS V14.00,2013-04-22 09:50:00,
2013-04-22 04:53:00,43.7,37.0,29.26,South,180,0.0,0.0,77,0.00,,---,0.00,VWS V14.00,2013-04-22 09:53:00,
2013-04-22 04:56:00,43.5,37.1,29.26,South,180,0.0,0.0,78,0.00,,---,0.00,VWS V14.00,2013-04-22 09:56:00,
2013-04-22 04:59:00,43.5,37.1,29.26,South,180,0.0,0.0,78,0.00,,---,0.00,VWS V14.00,2013-04-22 09:59:00,
2013-04-22 05:02:00,43.5,37.1,29.26,South,180,0.0,0.0,78,0.00,,---,0.00,VWS V14.00,2013-04-22 10:02:00,
2013-04-22 05:05:00,43.5,37.4,29.26,South,180,0.0,0.0,79,0.00,,---,0.00,VWS V14.00,2013-04-22 10:05:00,
2013-04-22 05:08:00,43.5,37.4,29.26,South,180,0.0,0.0,79,0.00,,---,0.00,VWS V14.00,2013-04-22 10:08:00,
2013-04-22 05:11:00,43.5,37.8,29.26,South,180,0.0,0.0,80,0.00,,---,0.00,VWS V14.00,2013-04-22 10:11:00,
2013-04-22 05:17:00,43.3,37.6,29.26,South,180,0.0,0.0,80,0.00,,---,0.00,VWS V14.00,2013-04-22 10:17:00,
2013-04-22 05:20:00,43.3,37.6,29.26,South,180,0.0,0.0,80,0.00,,---,0.00,VWS V14.00,2013-04-22 10:20:00,
2013-04-22 05:23:00,43.3,37.6,29.26,South,180,0.0,0.0,80,0.00,,---,0.00,VWS V14.00,2013-04-22 10:23:00,
2013-04-22 05:26:00,43.3,37.6,29.26,South,180,0.0,0.0,80,0.00,,---,0.00,VWS V14.00,2013-04-22 10:26:00,
2013-04-22 05:29:00,43.5,37.4,29.29,South,180,0.0,0.0,79,0.00,,---,0.00,VWS V14.00,2013-04-22 10:29:00,
2013-04-22 05:35:00,43.3,37.3,29.29,South,180,0.0,0.0,79,0.00,,---,0.00,VWS V14.00,2013-04-22 10:35:00,
2013-04-22 05:41:00,43.3,37.3,29.29,South,180,0.0,0.0,79,0.00,,---,0.00,VWS V14.00,2013-04-22 10:41:00,
2013-04-22 05:44:00,43.3,37.3,29.29,South,180,0.0,0.0,79,0.00,,---,0.00,VWS V14.00,2013-04-22 10:44:00,
2013-04-22 05:47:00,43.1,37.4,29.26,South,180,0.0,0.0,80,0.00,,---,0.00,VWS V14.00,2013-04-22 10:47:00,
2013-04-22 05:50:00,43.3,37.6,29.26,South,180,0.0,0.0,80,0.00,,---,0.00,VWS V14.00,2013-04-22 10:50:00,
2013-04-22 05:53:00,43.3,37.6,29.26,South,180,0.0,0.0,80,0.00,,---,0.00,VWS V14.00,2013-04-22 10:53:00,
2013-04-22 05:56:00,43.3,37.3,29.26,South,180,0.0,0.0,79,0.00,,---,0.00,VWS V14.00,2013-04-22 10:56:00,
2013-04-22 05:59:00,43.3,37.3,29.26,South,180,0.0,0.0,79,0.00,,---,0.00,VWS V14.00,2013-04-22 10:59:00,
2013-04-22 06:05:00,43.1,37.4,29.26,South,180,0.0,0.0,80,0.00,,---,0.00,VWS V14.00,2013-04-22 11:05:00,
2013-04-22 06:11:00,43.1,37.4,29.26,South,180,0.0,0.0,80,0.00,,---,0.00,VWS V14.00,2013-04-22 11:11:00,
2013-04-22 06:14:00,42.8,37.4,29.26,South,180,0.0,0.0,81,0.00,,---,0.00,VWS V14.00,2013-04-22 11:14:00,
2013-04-22 06:20:00,42.4,37.6,29.26,South,180,0.0,0.0,83,0.00,,---,0.00,VWS V14.00,2013-04-22 11:20:00,
2013-04-22 06:23:00,42.4,37.6,29.26,South,180,0.0,0.0,83,0.00,,---,0.00,VWS V14.00,2013-04-22 11:23:00,
2013-04-22 06:29:00,42.2,37.5,29.26,South,180,0.0,0.0,83,0.00,,---,0.00,VWS V14.00,2013-04-22 11:29:00,
2013-04-22 06:32:00,42.2,37.5,29.26,South,180,0.0,0.0,83,0.00,,---,0.00,VWS V14.00,2013-04-22 11:32:00,
2013-04-22 06:35:00,42.1,37.6,29.26,South,180,0.0,0.0,84,0.00,,---,0.00,VWS V14.00,2013-04-22 11:35:00,
2013-04-22 06:41:00,42.1,37.6,29.26,South,180,0.0,0.0,84,0.00,,---,0.00,VWS V14.00,2013-04-22 11:41:00,
2013-04-22 06:47:00,42.1,37.9,29.29,South,180,0.0,0.0,85,0.00,,---,0.00,VWS V14.00,2013-04-22 11:47:00,
2013-04-22 06:50:00,42.2,38.1,29.29,South,180,0.0,0.0,85,0.00,,---,0.00,VWS V14.00,2013-04-22 11:50:00,
2013-04-22 06:53:00,42.2,38.1,29.29,South,180,0.0,0.0,85,0.00,,---,0.00,VWS V14.00,2013-04-22 11:53:00,
2013-04-22 06:56:00,42.2,38.1,29.29,South,180,0.0,0.0,85,0.00,,---,0.00,VWS V14.00,2013-04-22 11:56:00,
2013-04-22 06:59:00,42.2,38.1,29.29,South,180,0.0,0.0,85,0.00,,---,0.00,VWS V14.00,2013-04-22 11:59:00,
2013-04-22 07:02:00,42.4,38.2,29.29,South,180,0.0,0.0,85,0.00,,---,0.00,VWS V14.00,2013-04-22 12:02:00,
2013-04-22 07:05:00,42.4,38.5,29.29,South,180,0.0,0.0,86,0.00,,---,0.00,VWS V14.00,2013-04-22 12:05:00,
2013-04-22 07:08:00,42.6,38.4,29.29,South,180,0.0,0.0,85,0.00,,---,0.00,VWS V14.00,2013-04-22 12:08:00,
2013-04-22 07:11:00,42.8,38.6,29.29,South,180,0.0,0.0,85,0.00,,---,0.00,VWS V14.00,2013-04-22 12:11:00,
2013-04-22 07:14:00,43.0,38.8,29.29,South,180,0.0,0.0,85,0.00,,---,0.00,VWS V14.00,2013-04-22 12:14:00,
2013-04-22 07:17:00,43.1,38.9,29.29,South,180,0.0,0.0,85,0.00,,---,0.00,VWS V14.00,2013-04-22 12:17:00,
2013-04-22 07:23:00,43.7,39.8,29.29,South,180,0.0,0.0,86,0.00,,---,0.00,VWS V14.00,2013-04-22 12:23:00,
2013-04-22 07:26:00,44.0,40.1,29.26,South,180,0.0,0.0,86,0.00,,---,0.00,VWS V14.00,2013-04-22 12:26:00,
2013-04-22 07:29:00,44.4,40.2,29.26,South,180,0.0,0.0,85,0.00,,---,0.00,VWS V14.00,2013-04-22 12:29:00,
2013-04-22 07:32:00,44.6,40.4,29.26,South,180,0.0,0.0,85,0.00,,---,0.00,VWS V14.00,2013-04-22 12:32:00,
2013-04-22 07:35:00,44.9,40.4,29.26,South,180,0.0,0.0,84,0.00,,---,0.00,VWS V14.00,2013-04-22 12:35:00,
2013-04-22 07:38:00,44.9,40.4,29.26,South,180,0.0,0.0,84,0.00,,---,0.00,VWS V14.00,2013-04-22 12:38:00,
2013-04-22 07:44:00,45.3,40.8,29.29,South,180,0.0,0.0,84,0.00,,---,0.00,VWS V14.00,2013-04-22 12:44:00,
2013-04-22 07:47:00,45.5,40.9,29.29,South,180,0.0,0.0,84,0.00,,---,0.00,VWS V14.00,2013-04-22 12:47:00,
2013-04-22 07:50:00,45.8,41.3,29.29,South,180,0.0,0.0,84,0.00,,---,0.00,VWS V14.00,2013-04-22 12:50:00,
2013-04-22 07:56:00,46.4,41.5,29.26,South,180,0.0,0.0,83,0.00,,---,0.00,VWS V14.00,2013-04-22 12:56:00,
2013-04-22 07:59:00,46.7,41.9,29.26,South,180,0.0,0.0,83,0.00,,---,0.00,VWS V14.00,2013-04-22 12:59:00,
2013-04-22 08:02:00,46.7,41.9,29.26,South,180,0.0,0.0,83,0.00,,---,0.00,VWS V14.00,2013-04-22 13:02:00,
2013-04-22 08:05:00,47.8,42.9,29.26,South,180,0.0,0.0,83,0.00,,---,0.00,VWS V14.00,2013-04-22 13:05:00,
2013-04-22 08:08:00,48.2,43.0,29.26,South,180,0.0,0.0,82,0.00,,---,0.00,VWS V14.00,2013-04-22 13:08:00,
2013-04-22 08:11:00,48.2,43.0,29.26,South,180,0.0,0.0,82,0.00,,---,0.00,VWS V14.00,2013-04-22 13:11:00,
2013-04-22 08:14:00,48.9,43.0,29.26,South,180,0.0,0.0,80,0.00,,---,0.00,VWS V14.00,2013-04-22 13:14:00,
2013-04-22 08:17:00,49.4,43.2,29.26,South,180,0.0,0.0,79,0.00,,---,0.00,VWS V14.00,2013-04-22 13:17:00,
2013-04-22 08:20:00,49.4,43.2,29.26,South,180,0.0,0.0,79,0.00,,---,0.00,VWS V14.00,2013-04-22 13:20:00,
2013-04-22 08:23:00,49.4,42.9,29.26,South,180,0.0,0.0,78,0.00,,---,0.00,VWS V14.00,2013-04-22 13:23:00,
2013-04-22 08:26:00,49.4,42.5,29.29,South,180,0.0,0.0,77,0.00,,---,0.00,VWS V14.00,2013-04-22 13:26:00,
2013-04-22 08:29:00,49.6,42.0,29.29,South,180,0.0,0.0,75,0.00,,---,0.00,VWS V14.00,2013-04-22 13:29:00,
2013-04-22 08:35:00,50.0,42.0,29.29,South,180,0.0,0.0,74,0.00,,---,0.00,VWS V14.00,2013-04-22 13:35:00,
2013-04-22 08:38:00,50.0,42.0,29.29,South,180,0.0,0.0,74,0.00,,---,0.00,VWS V14.00,2013-04-22 13:38:00,
2013-04-22 08:41:00,50.3,42.4,29.26,SSE,165,2.7,2.7,74,0.00,,---,0.00,VWS V14.00,2013-04-22 13:41:00,
2013-04-22 08:44:00,50.3,42.4,29.26,SSE,165,3.6,3.6,74,0.00,,---,0.00,VWS V14.00,2013-04-22 13:44:00,
2013-04-22 08:47:00,51.2,42.2,29.26,South,172,0.0,3.6,71,0.00,,---,0.00,VWS V14.00,2013-04-22 13:47:00,
2013-04-22 08:50:00,51.2,42.2,29.26,South,181,2.2,3.6,71,0.00,,---,0.00,VWS V14.00,2013-04-22 13:50:00,
2013-04-22 08:53:00,51.8,41.6,29.26,South,172,0.0,2.7,68,0.00,,---,0.00,VWS V14.00,2013-04-22 13:53:00,
2013-04-22 08:56:00,51.8,41.6,29.26,South,172,3.6,3.6,68,0.00,,---,0.00,VWS V14.00,2013-04-22 13:56:00,
2013-04-22 08:59:00,52.1,41.5,29.26,South,175,2.7,3.6,67,0.00,,---,0.00,VWS V14.00,2013-04-22 13:59:00,
2013-04-22 09:02:00,52.1,41.5,29.26,SSE,167,3.6,3.6,67,0.00,,---,0.00,VWS V14.00,2013-04-22 14:02:00,
2013-04-22 09:05:00,52.5,41.1,29.26,South,184,2.2,3.6,65,0.00,,---,0.00,VWS V14.00,2013-04-22 14:05:00,
2013-04-22 09:11:00,53.0,40.8,29.26,SSE,167,3.6,3.6,63,0.00,,---,0.00,VWS V14.00,2013-04-22 14:11:00,
2013-04-22 09:14:00,53.4,40.7,29.26,SE,143,2.2,3.6,62,0.00,,---,0.00,VWS V14.00,2013-04-22 14:14:00,
2013-04-22 09:17:00,53.9,40.8,29.26,SE,143,2.2,3.6,61,0.00,,---,0.00,VWS V14.00,2013-04-22 14:17:00,
2013-04-22 09:20:00,53.9,40.8,29.26,South,176,3.6,3.6,61,0.00,,---,0.00,VWS V14.00,2013-04-22 14:20:00,
2013-04-22 09:26:00,54.5,40.5,29.26,SSE,165,3.6,5.4,59,0.00,,---,0.00,VWS V14.00,2013-04-22 14:26:00,
2013-04-22 09:32:00,54.8,40.4,29.26,South,182,3.1,5.4,58,0.00,,---,0.00,VWS V14.00,2013-04-22 14:32:00,
2013-04-22 09:35:00,54.8,40.4,29.26,SSE,166,2.7,2.7,58,0.00,,---,0.00,VWS V14.00,2013-04-22 14:35:00,
2013-04-22 09:38:00,55.2,40.2,29.26,South,176,4.0,4.0,57,0.00,,---,0.00,VWS V14.00,2013-04-22 14:38:00,
2013-04-22 09:44:00,55.9,40.5,29.26,South,171,2.7,4.0,56,0.00,,---,0.00,VWS V14.00,2013-04-22 14:44:00,
2013-04-22 09:47:00,55.9,40.0,29.26,South,171,2.7,4.0,55,0.00,,---,0.00,VWS V14.00,2013-04-22 14:47:00,
2013-04-22 09:50:00,56.3,40.3,29.26,South,172,4.5,4.5,55,0.00,,---,0.00,VWS V14.00,2013-04-22 14:50:00,
2013-04-22 09:53:00,56.6,40.2,29.26,SSE,167,4.0,4.5,54,0.00,,---,0.00,VWS V14.00,2013-04-22 14:53:00,
2013-04-22 09:56:00,56.8,40.4,29.26,South,175,4.5,4.5,54,0.00,,---,0.00,VWS V14.00,2013-04-22 14:56:00,
2013-04-22 09:59:00,57.2,40.2,29.26,South,175,4.5,4.5,53,0.00,,---,0.00,VWS V14.00,2013-04-22 14:59:00,
2013-04-22 10:02:00,57.4,40.4,29.26,South,169,3.1,4.5,53,0.00,,---,0.00,VWS V14.00,2013-04-22 15:02:00,
2013-04-22 10:05:00,57.7,40.2,29.26,South,169,3.1,4.5,52,0.00,,---,0.00,VWS V14.00,2013-04-22 15:05:00,
2013-04-22 10:12:00,58.1,40.6,29.26,South,176,2.7,3.6,52,0.00,,---,0.00,VWS V14.00,2013-04-22 15:12:00,
2013-04-22 10:18:00,59.0,40.4,29.26,South,178,2.7,3.6,50,0.00,,---,0.00,VWS V14.00,2013-04-22 15:18:00,
2013-04-22 10:20:00,59.0,40.4,29.26,South,178,2.7,3.6,50,0.00,,---,0.00,VWS V14.00,2013-04-22 15:20:00,
2013-04-22 10:21:00,59.0,40.4,29.26,South,183,3.6,3.6,50,0.00,,---,0.00,VWS V14.00,2013-04-22 15:21:00,
2013-04-22 10:27:00,59.3,40.2,29.26,South,169,4.0,4.9,49,0.00,,---,0.00,VWS V14.00,2013-04-22 15:27:00,
2013-04-22 10:30:00,59.7,40.5,29.26,SSE,161,4.0,4.9,49,0.00,,---,0.00,VWS V14.00,2013-04-22 15:30:00,
2013-04-22 10:35:00,60.1,40.3,29.26,South,173,4.0,4.9,48,0.00,,---,0.00,VWS V14.00,2013-04-22 15:35:00,
2013-04-22 10:36:00,60.1,40.3,29.26,South,173,4.0,4.0,48,0.00,,---,0.00,VWS V14.00,2013-04-22 15:36:00,
2013-04-22 10:42:00,60.8,40.4,29.26,South,170,5.8,5.8,47,0.00,,---,0.00,VWS V14.00,2013-04-22 15:42:00,
2013-04-22 10:48:00,61.3,40.9,29.26,South,170,5.8,5.8,47,0.00,,---,0.00,VWS V14.00,2013-04-22 15:48:00,
2013-04-22 10:51:00,61.5,41.1,29.26,SSE,156,4.0,4.0,47,0.00,,---,0.00,VWS V14.00,2013-04-22 15:51:00,
2013-04-22 10:54:00,61.9,40.9,29.26,SSE,160,3.1,4.0,46,0.00,,---,0.00,VWS V14.00,2013-04-22 15:54:00,
2013-04-22 10:57:00,62.2,41.2,29.26,SSE,166,3.1,4.5,46,0.00,,---,0.00,VWS V14.00,2013-04-22 15:57:00,
2013-04-22 11:00:00,62.2,41.2,29.26,South,171,4.0,4.5,46,0.00,,---,0.00,VWS V14.00,2013-04-22 16:00:00,
2013-04-22 11:03:00,62.4,40.8,29.26,SSE,167,3.1,4.5,45,0.00,,---,0.00,VWS V14.00,2013-04-22 16:03:00,
2013-04-22 11:05:00,62.4,40.8,29.26,SSE,167,3.6,4.5,45,0.00,,---,0.00,VWS V14.00,2013-04-22 16:05:00,
2013-04-22 11:06:00,62.4,40.8,29.26,SSE,167,3.6,3.6,45,0.00,,---,0.00,VWS V14.00,2013-04-22 16:06:00,
2013-04-22 11:09:00,62.4,40.8,29.26,South,181,3.1,3.6,45,0.00,,---,0.00,VWS V14.00,2013-04-22 16:09:00,
2013-04-22 11:15:00,63.7,42.0,29.23,SSE,168,5.4,5.4,45,0.00,,---,0.00,VWS V14.00,2013-04-22 16:15:00,
2013-04-22 11:18:00,63.8,42.1,29.23,South,170,5.8,5.8,45,0.00,,---,0.00,VWS V14.00,2013-04-22 16:18:00,
2013-04-22 11:20:00,64.4,42.0,29.23,SSE,164,4.9,5.8,44,0.00,,---,0.00,VWS V14.00,2013-04-22 16:20:00,
2013-04-22 11:24:00,64.6,42.2,29.23,SE,136,3.6,4.9,44,0.00,,---,0.00,VWS V14.00,2013-04-22 16:24:00,
2013-04-22 11:27:00,64.7,42.3,29.23,SSE,150,3.1,4.9,44,0.00,,---,0.00,VWS V14.00,2013-04-22 16:27:00,
2013-04-22 11:30:00,65.1,42.7,29.23,SSE,160,5.4,5.4,44,0.00,,---,0.00,VWS V14.00,2013-04-22 16:30:00,
2013-04-22 11:33:00,65.3,42.8,29.23,ESE,106,4.9,5.4,44,0.00,,---,0.00,VWS V14.00,2013-04-22 16:33:00,
2013-04-22 11:36:00,65.6,42.6,29.23,ESE,106,4.9,4.9,43,0.00,,---,0.00,VWS V14.00,2013-04-22 16:36:00,
2013-04-22 11:39:00,65.8,42.7,29.23,South,169,5.8,5.8,43,0.00,,---,0.00,VWS V14.00,2013-04-22 16:39:00,
2013-04-22 11:42:00,66.0,42.9,29.23,SSE,152,5.4,5.8,43,0.00,,---,0.00,VWS V14.00,2013-04-22 16:42:00,
2013-04-22 11:45:00,66.2,42.4,29.23,SSE,159,5.8,5.8,42,0.00,,---,0.00,VWS V14.00,2013-04-22 16:45:00,
2013-04-22 11:50:00,66.5,42.8,29.23,SSE,166,6.3,6.3,42,0.00,,---,0.00,VWS V14.00,2013-04-22 16:50:00,
2013-04-22 11:51:00,66.9,43.1,29.23,SSE,166,6.3,6.3,42,0.00,,---,0.00,VWS V14.00,2013-04-22 16:51:00,
2013-04-22 11:57:00,66.9,43.1,29.23,SSE,164,5.8,6.3,42,0.00,,---,0.00,VWS V14.00,2013-04-22 16:57:00,
2013-04-22 12:00:00,67.4,42.9,29.23,South,169,5.4,6.3,41,0.00,,---,0.00,VWS V14.00,2013-04-22 17:00:00,
2013-04-22 12:03:00,67.4,42.9,29.23,SSE,154,3.6,6.3,41,0.00,,---,0.00,VWS V14.00,2013-04-22 17:03:00,
2013-04-22 12:05:00,67.4,42.9,29.23,SSE,165,4.9,6.3,41,0.00,,---,0.00,VWS V14.00,2013-04-22 17:05:00,
2013-04-22 12:09:00,67.4,42.9,29.23,SE,146,4.9,5.4,41,0.00,,---,0.00,VWS V14.00,2013-04-22 17:09:00,
2013-04-22 12:12:00,68.2,43.0,29.23,SSE,157,5.4,5.4,40,0.00,,---,0.00,VWS V14.00,2013-04-22 17:12:00,
2013-04-22 12:15:00,68.3,43.1,29.23,SSE,157,5.4,5.4,40,0.00,,---,0.00,VWS V14.00,2013-04-22 17:15:00,
2013-04-22 12:18:00,68.3,43.1,29.23,SSE,165,4.9,5.4,40,0.00,,---,0.00,VWS V14.00,2013-04-22 17:18:00,
2013-04-22 12:20:00,68.3,43.1,29.23,SSE,165,4.9,5.4,40,0.00,,---,0.00,VWS V14.00,2013-04-22 17:20:00,
2013-04-22 12:21:00,68.3,43.1,29.23,SSE,165,4.9,4.9,40,0.00,,---,0.00,VWS V14.00,2013-04-22 17:21:00,
2013-04-22 12:27:00,69.2,44.6,29.23,South,170,6.3,6.3,41,0.00,,---,0.00,VWS V14.00,2013-04-22 17:27:00,
2013-04-22 12:30:00,69.2,44.6,29.23,SSE,155,5.4,6.3,41,0.00,,---,0.00,VWS V14.00,2013-04-22 17:30:00,
2013-04-22 12:33:00,69.2,44.6,29.23,SSE,166,5.8,6.3,41,0.00,,---,0.00,VWS V14.00,2013-04-22 17:33:00,
2013-04-22 12:35:00,69.2,44.6,29.23,South,172,5.4,6.3,41,0.00,,---,0.00,VWS V14.00,2013-04-22 17:35:00,
2013-04-22 12:36:00,69.2,44.6,29.23,South,172,5.4,5.4,41,0.00,,---,0.00,VWS V14.00,2013-04-22 17:36:00,
2013-04-22 12:39:00,69.2,44.6,29.21,SSE,161,6.3,6.3,41,0.00,,---,0.00,VWS V14.00,2013-04-22 17:39:00,
2013-04-22 12:42:00,69.2,44.6,29.21,SSE,147,4.9,6.3,41,0.00,,---,0.00,VWS V14.00,2013-04-22 17:42:00,
2013-04-22 12:45:00,69.2,44.6,29.21,SSE,147,2.7,6.3,41,0.00,,---,0.00,VWS V14.00,2013-04-22 17:45:00,
2013-04-22 12:48:00,69.2,44.6,29.21,SSE,163,4.9,6.3,41,0.00,,---,0.00,VWS V14.00,2013-04-22 17:48:00,
2013-04-22 12:50:00,69.2,44.6,29.21,South,169,5.4,6.3,41,0.00,,---,0.00,VWS V14.00,2013-04-22 17:50:00,
2013-04-22 12:54:00,70.9,44.0,29.21,SSE,154,5.8,5.8,38,0.00,,---,0.00,VWS V14.00,2013-04-22 17:54:00,
2013-04-22 12:57:00,71.2,44.3,29.21,ESE,102,0.0,5.8,38,0.00,,---,0.00,VWS V14.00,2013-04-22 17:57:00,
2013-04-22 13:00:00,71.2,44.3,29.21,South,174,3.1,5.8,38,0.00,,---,0.00,VWS V14.00,2013-04-22 18:00:00,
2013-04-22 13:03:00,71.2,44.3,29.21,SSE,163,4.9,5.8,38,0.00,,---,0.00,VWS V14.00,2013-04-22 18:03:00,
2013-04-22 13:05:00,71.4,43.1,29.21,SSE,163,4.9,5.8,36,0.00,,---,0.00,VWS V14.00,2013-04-22 18:05:00,
2013-04-22 13:06:00,71.4,43.1,29.21,South,170,7.2,7.2,36,0.00,,---,0.00,VWS V14.00,2013-04-22 18:06:00,
2013-04-22 13:09:00,71.4,43.1,29.21,South,170,7.2,7.2,36,0.00,,---,0.00,VWS V14.00,2013-04-22 18:09:00,
2013-04-22 13:12:00,71.4,43.1,29.18,South,187,3.6,7.2,36,0.00,,---,0.00,VWS V14.00,2013-04-22 18:12:00,
2013-04-22 13:15:00,71.4,43.1,29.18,SSE,164,6.3,7.2,36,0.00,,---,0.00,VWS V14.00,2013-04-22 18:15:00,
2013-04-22 13:18:00,71.4,43.1,29.18,SSE,155,5.4,7.2,36,0.00,,---,0.00,VWS V14.00,2013-04-22 18:18:00,
2013-04-22 13:20:00,71.4,43.1,29.18,ENE,57,3.6,7.2,36,0.00,,---,0.00,VWS V14.00,2013-04-22 18:20:00,
2013-04-22 13:24:00,71.4,43.1,29.18,SSE,147,5.4,6.3,36,0.00,,---,0.00,VWS V14.00,2013-04-22 18:24:00,
2013-04-22 13:30:00,71.4,43.1,29.18,SE,140,8.3,8.3,36,0.00,,---,0.00,VWS V14.00,2013-04-22 18:30:00,
2013-04-22 13:33:00,71.4,43.1,29.18,SSE,165,8.3,8.3,36,0.00,,---,0.00,VWS V14.00,2013-04-22 18:33:00,
2013-04-22 13:35:00,71.4,43.1,29.18,SSE,159,5.8,8.3,36,0.00,,---,0.00,VWS V14.00,2013-04-22 18:35:00,
2013-04-22 13:39:00,71.4,43.1,29.18,SSE,149,5.4,5.8,36,0.00,,---,0.00,VWS V14.00,2013-04-22 18:39:00,
2013-04-22 13:42:00,71.4,43.1,29.18,SSE,164,5.8,5.8,36,0.00,,---,0.00,VWS V14.00,2013-04-22 18:42:00,
2013-04-22 13:45:00,71.4,43.1,29.15,SSE,166,6.3,7.2,36,0.00,,---,0.00,VWS V14.00,2013-04-22 18:45:00,
2013-04-22 13:48:00,71.4,43.1,29.15,SSE,165,5.8,7.2,36,0.00,,---,0.00,VWS V14.00,2013-04-22 18:48:00,
2013-04-22 13:50:00,71.4,43.1,29.15,SSE,148,4.5,7.2,36,0.00,,---,0.00,VWS V14.00,2013-04-22 18:50:00,
2013-04-22 13:54:00,71.4,43.1,29.15,SSE,165,5.4,5.4,36,0.00,,---,0.00,VWS V14.00,2013-04-22 18:54:00,
2013-04-22 13:57:00,71.4,43.1,29.15,SSE,157,8.7,8.7,36,0.00,,---,0.00,VWS V14.00,2013-04-22 18:57:00,
2013-04-22 14:00:00,71.4,43.1,29.15,South,175,7.6,10.5,36,0.00,,---,0.00,VWS V14.00,2013-04-22 19:00:00,
2013-04-22 14:03:00,71.4,43.1,29.15,SSE,157,8.7,10.5,36,0.00,,---,0.00,VWS V14.00,2013-04-22 19:03:00,
2013-04-22 14:05:00,72.7,41.9,29.15,SSE,157,9.2,10.5,33,0.00,,---,0.00,VWS V14.00,2013-04-22 19:05:00,
2013-04-22 14:12:00,72.7,41.9,29.15,SSE,161,6.3,9.2,33,0.00,,---,0.00,VWS V14.00,2013-04-22 19:12:00,
2013-04-22 14:15:00,72.7,41.9,29.15,SE,133,5.4,9.2,33,0.00,,---,0.00,VWS V14.00,2013-04-22 19:15:00,
2013-04-22 14:18:00,72.7,41.9,29.15,SSE,165,5.4,9.2,33,0.00,,---,0.00,VWS V14.00,2013-04-22 19:18:00,
2013-04-22 14:20:00,72.7,41.9,29.15,SE,138,6.3,9.2,33,0.00,,---,0.00,VWS V14.00,2013-04-22 19:20:00,
2013-04-22 14:21:00,72.7,41.9,29.15,SE,138,6.3,6.3,33,0.00,,---,0.00,VWS V14.00,2013-04-22 19:21:00,
2013-04-22 14:24:00,72.7,41.9,29.15,SSE,156,6.3,8.1,33,0.00,,---,0.00,VWS V14.00,2013-04-22 19:24:00,
2013-04-22 14:27:00,72.7,41.9,29.12,SSW,198,7.6,8.1,33,0.00,,---,0.00,VWS V14.00,2013-04-22 19:27:00,
2013-04-22 14:33:00,72.7,41.9,29.12,SE,143,4.9,8.1,33,0.00,,---,0.00,VWS V14.00,2013-04-22 19:33:00,
2013-04-22 14:35:00,72.7,41.9,29.12,SSE,153,6.3,8.1,33,0.00,,---,0.00,VWS V14.00,2013-04-22 19:35:00,
2013-04-22 14:36:00,72.7,41.9,29.12,SSE,153,6.3,6.3,33,0.00,,---,0.00,VWS V14.00,2013-04-22 19:36:00,
2013-04-22 14:39:00,72.7,41.9,29.12,SSE,153,6.3,6.3,33,0.00,,---,0.00,VWS V14.00,2013-04-22 19:39:00,
2013-04-22 14:45:00,72.7,41.9,29.12,SSE,157,8.7,8.7,33,0.00,,---,0.00,VWS V14.00,2013-04-22 19:45:00,
2013-04-22 14:51:00,72.7,41.9,29.12,SE,136,6.3,6.3,33,0.00,,---,0.00,VWS V14.00,2013-04-22 19:51:00,
2013-04-22 14:54:00,72.7,41.9,29.12,SSE,159,8.3,8.3,33,0.00,,---,0.00,VWS V14.00,2013-04-22 19:54:00,
2013-04-22 14:57:00,72.7,41.9,29.12,SSE,160,7.6,10.1,33,0.00,,---,0.00,VWS V14.00,2013-04-22 19:57:00,
2013-04-22 15:00:00,72.7,41.9,29.12,SSE,158,5.4,10.1,33,0.00,,---,0.00,VWS V14.00,2013-04-22 20:00:00,
2013-04-22 15:03:00,72.7,41.9,29.12,SSE,160,8.1,10.1,33,0.00,,---,0.00,VWS V14.00,2013-04-22 20:03:00,
2013-04-22 15:09:00,72.7,41.9,29.12,SE,146,8.7,8.7,33,0.00,,---,0.00,VWS V14.00,2013-04-22 20:09:00,
2013-04-22 15:12:00,72.7,41.9,29.12,SSE,153,8.3,8.7,33,0.00,,---,0.00,VWS V14.00,2013-04-22 20:12:00,
2013-04-22 15:18:00,72.7,41.9,29.12,SSE,155,7.2,8.7,33,0.00,,---,0.00,VWS V14.00,2013-04-22 20:18:00,
2013-04-22 15:24:00,72.7,41.9,29.12,SSE,159,6.7,8.1,33,0.00,,---,0.00,VWS V14.00,2013-04-22 20:24:00,
2013-04-22 15:27:00,72.7,41.9,29.12,SSW,192,6.3,8.7,33,0.00,,---,0.00,VWS V14.00,2013-04-22 20:27:00,
2013-04-22 15:30:00,70.5,40.8,29.12,South,174,6.3,8.7,34,0.00,,---,0.00,VWS V14.00,2013-04-22 20:30:00,
2013-04-22 15:33:00,70.3,40.7,29.12,SSE,158,5.8,8.7,34,0.00,,---,0.00,VWS V14.00,2013-04-22 20:33:00,
2013-04-22 15:39:00,70.1,40.5,29.12,SSE,153,6.3,6.3,34,0.00,,---,0.00,VWS V14.00,2013-04-22 20:39:00,
2013-04-22 15:42:00,70.1,40.5,29.09,SSE,160,9.2,9.2,34,0.00,,---,0.00,VWS V14.00,2013-04-22 20:42:00,
2013-04-22 15:45:00,70.1,40.5,29.09,SSE,154,8.7,9.2,34,0.00,,---,0.00,VWS V14.00,2013-04-22 20:45:00,
2013-04-22 15:48:00,70.1,40.5,29.09,SSE,158,8.3,9.2,34,0.00,,---,0.00,VWS V14.00,2013-04-22 20:48:00,
2013-04-22 15:50:00,70.1,40.5,29.09,SSE,160,8.7,9.2,34,0.00,,---,0.00,VWS V14.00,2013-04-22 20:50:00,
2013-04-22 15:55:00,70.1,40.5,29.09,South,171,8.3,8.7,34,0.00,,---,0.00,VWS V14.00,2013-04-22 20:55:00,
2013-04-22 15:58:00,71.0,41.3,29.09,SSE,162,12.3,12.3,34,0.00,,---,0.00,VWS V14.00,2013-04-22 20:58:00,
2013-04-22 16:01:00,71.0,41.3,29.09,SSE,165,12.8,12.8,34,0.00,,---,0.00,VWS V14.00,2013-04-22 21:01:00,
2013-04-22 16:04:00,71.0,41.3,29.09,SSE,160,13.2,13.2,34,0.00,,---,0.00,VWS V14.00,2013-04-22 21:04:00,
2013-04-22 16:05:00,71.0,41.3,29.09,SSE,166,11.0,13.2,34,0.00,,---,0.00,VWS V14.00,2013-04-22 21:05:00,
2013-04-22 16:07:00,71.0,41.3,29.09,SSE,166,11.0,11.0,34,0.00,,---,0.00,VWS V14.00,2013-04-22 21:07:00,
2013-04-22 16:10:00,71.0,41.3,29.09,South,172,10.1,11.0,34,0.00,,---,0.00,VWS V14.00,2013-04-22 21:10:00,
2013-04-22 16:13:00,71.9,40.5,29.09,South,172,10.1,11.0,32,0.00,,---,0.00,VWS V14.00,2013-04-22 21:13:00,
2013-04-22 16:16:00,71.9,40.5,29.09,SSE,150,7.2,11.0,32,0.00,,---,0.00,VWS V14.00,2013-04-22 21:16:00,
2013-04-22 16:19:00,71.9,40.5,29.09,SSE,162,10.5,11.0,32,0.00,,---,0.00,VWS V14.00,2013-04-22 21:19:00,
2013-04-22 16:20:00,71.9,40.5,29.09,SSE,162,10.5,11.0,32,0.00,,---,0.00,VWS V14.00,2013-04-22 21:20:00,
2013-04-22 16:22:00,71.9,40.5,29.09,SSE,157,10.1,10.5,32,0.00,,---,0.00,VWS V14.00,2013-04-22 21:22:00,
2013-04-22 16:28:00,71.0,39.7,29.09,South,170,12.8,12.8,32,0.00,,---,0.00,VWS V14.00,2013-04-22 21:28:00,
2013-04-22 16:34:00,70.5,40.0,29.09,SSE,160,11.4,12.8,33,0.00,,---,0.00,VWS V14.00,2013-04-22 21:34:00,
2013-04-22 16:35:00,70.5,40.0,29.09,SSE,149,8.3,12.8,33,0.00,,---,0.00,VWS V14.00,2013-04-22 21:35:00,
2013-04-22 16:37:00,70.5,40.0,29.09,South,190,8.1,8.3,33,0.00,,---,0.00,VWS V14.00,2013-04-22 21:37:00,
2013-04-22 16:43:00,70.5,40.0,29.06,South,182,10.1,11.0,33,0.00,,---,0.00,VWS V14.00,2013-04-22 21:43:00,
2013-04-22 16:46:00,70.5,40.0,29.06,South,182,10.1,11.0,33,0.00,,---,0.00,VWS V14.00,2013-04-22 21:46:00,
2013-04-22 16:49:00,68.9,38.6,29.06,SSE,147,8.3,11.0,33,0.00,,---,0.00,VWS V14.00,2013-04-22 21:49:00,
2013-04-22 16:55:00,68.9,38.6,29.06,SSE,165,8.7,10.1,33,0.00,,---,0.00,VWS V14.00,2013-04-22 21:55:00,
2013-04-22 17:01:00,68.7,38.5,29.06,SE,141,7.6,10.1,33,0.00,,---,0.00,VWS V14.00,2013-04-22 22:01:00,
2013-04-22 17:04:00,70.9,41.1,29.06,SSE,162,6.3,10.1,34,0.00,,---,0.00,VWS V14.00,2013-04-22 22:04:00,
2013-04-22 17:05:00,70.9,41.1,29.06,SSE,165,6.3,10.1,34,0.00,,---,0.00,VWS V14.00,2013-04-22 22:05:00,
2013-04-22 17:10:00,70.9,41.1,29.06,SSE,149,8.3,8.3,34,0.00,,---,0.00,VWS V14.00,2013-04-22 22:10:00,
2013-04-22 17:13:00,72.1,42.2,29.06,SSE,149,8.3,8.3,34,0.00,,---,0.00,VWS V14.00,2013-04-22 22:13:00,
2013-04-22 17:16:00,72.1,42.2,29.06,SW,220,12.3,12.3,34,0.00,,---,0.00,VWS V14.00,2013-04-22 22:16:00,
2013-04-22 17:19:00,72.1,42.2,29.06,SE,144,7.6,12.3,34,0.00,,---,0.00,VWS V14.00,2013-04-22 22:19:00,
2013-04-22 17:20:00,72.1,42.2,29.06,SSE,153,10.1,12.3,34,0.00,,---,0.00,VWS V14.00,2013-04-22 22:20:00,
2013-04-22 17:22:00,71.8,41.1,29.06,SSE,153,10.1,10.1,33,0.00,,---,0.00,VWS V14.00,2013-04-22 22:22:00,
2013-04-22 17:28:00,71.8,41.1,29.06,SSW,192,8.7,11.0,33,0.00,,---,0.00,VWS V14.00,2013-04-22 22:28:00,
2013-04-22 17:31:00,71.8,41.1,29.06,SSE,162,9.2,11.0,33,0.00,,---,0.00,VWS V14.00,2013-04-22 22:31:00,
2013-04-22 17:34:00,71.8,41.1,29.06,SSE,156,12.8,12.8,33,0.00,,---,0.00,VWS V14.00,2013-04-22 22:34:00,
2013-04-22 17:35:00,71.8,41.1,29.06,SSE,156,12.8,12.8,33,0.00,,---,0.00,VWS V14.00,2013-04-22 22:35:00,
2013-04-22 17:40:00,71.8,41.1,29.06,South,172,10.5,12.8,33,0.00,,---,0.00,VWS V14.00,2013-04-22 22:40:00,
2013-04-22 17:46:00,78.1,45.0,29.06,SSE,159,12.3,12.8,31,0.00,,---,0.00,VWS V14.00,2013-04-22 22:46:00,
2013-04-22 17:49:00,78.1,45.0,29.06,SSE,163,8.3,12.8,31,0.00,,---,0.00,VWS V14.00,2013-04-22 22:49:00,
2013-04-22 17:50:00,78.1,45.0,29.06,SSE,163,8.3,12.8,31,0.00,,---,0.00,VWS V14.00,2013-04-22 22:50:00,
2013-04-22 17:52:00,78.1,45.0,29.06,SSE,166,9.6,10.1,31,0.00,,---,0.00,VWS V14.00,2013-04-22 22:52:00,
2013-04-22 17:55:00,77.2,44.2,29.06,SSE,166,9.6,10.1,31,0.00,,---,0.00,VWS V14.00,2013-04-22 22:55:00,
2013-04-22 17:58:00,76.1,43.3,29.06,South,182,11.0,11.0,31,0.00,,---,0.00,VWS V14.00,2013-04-22 22:58:00,
2013-04-22 18:01:00,76.1,43.3,29.06,SE,142,7.6,11.0,31,0.00,,---,0.00,VWS V14.00,2013-04-22 23:01:00,
2013-04-22 18:04:00,75.0,42.3,29.06,South,169,12.8,12.8,31,0.00,,---,0.00,VWS V14.00,2013-04-22 23:04:00,
2013-04-22 18:05:00,75.0,42.3,29.06,SSW,192,7.6,12.8,31,0.00,,---,0.00,VWS V14.00,2013-04-22 23:05:00,
2013-04-22 18:07:00,75.0,42.3,29.06,South,177,9.2,9.2,31,0.00,,---,0.00,VWS V14.00,2013-04-22 23:07:00,
2013-04-22 18:13:00,75.0,42.3,29.06,South,171,11.0,11.0,31,0.00,,---,0.00,VWS V14.00,2013-04-22 23:13:00,
2013-04-22 18:16:00,75.0,42.3,29.06,SSE,163,7.6,11.0,31,0.00,,---,0.00,VWS V14.00,2013-04-22 23:16:00,
2013-04-22 18:19:00,75.0,42.3,29.06,SSE,163,7.6,11.0,31,0.00,,---,0.00,VWS V14.00,2013-04-22 23:19:00,
2013-04-22 18:20:00,75.0,42.3,29.06,South,182,12.3,12.3,31,0.00,,---,0.00,VWS V14.00,2013-04-22 23:20:00,
2013-04-22 18:22:00,75.0,42.3,29.06,South,182,12.3,12.3,31,0.00,,---,0.00,VWS V14.00,2013-04-22 23:22:00,
2013-04-22 18:25:00,75.0,42.3,29.06,SSW,192,10.1,12.3,31,0.00,,---,0.00,VWS V14.00,2013-04-22 23:25:00,
2013-04-22 18:28:00,72.7,41.1,29.06,SE,142,8.1,12.3,32,0.00,,---,0.00,VWS V14.00,2013-04-22 23:28:00,
2013-04-22 18:34:00,72.7,41.1,29.06,SSE,162,11.0,12.3,32,0.00,,---,0.00,VWS V14.00,2013-04-22 23:34:00,
2013-04-22 18:40:00,71.2,40.7,29.06,South,171,10.5,11.0,33,0.00,,---,0.00,VWS V14.00,2013-04-22 23:40:00,
2013-04-22 18:43:00,71.2,40.7,29.06,SE,130,7.6,11.0,33,0.00,,---,0.00,VWS V14.00,2013-04-22 23:43:00,
2013-04-22 18:46:00,69.4,39.9,29.06,South,182,10.1,11.0,34,0.00,,---,0.00,VWS V14.00,2013-04-22 23:46:00,
2013-04-22 18:49:00,69.4,39.9,29.06,South,178,6.3,11.0,34,0.00,,---,0.00,VWS V14.00,2013-04-22 23:49:00,
2013-04-22 18:52:00,69.4,39.9,29.06,South,175,5.8,7.6,34,0.00,,---,0.00,VWS V14.00,2013-04-22 23:52:00,
2013-04-22 18:55:00,68.3,38.9,29.06,South,175,5.8,7.6,34,0.00,,---,0.00,VWS V14.00,2013-04-22 23:55:00,
2013-04-22 19:01:00,68.0,38.6,29.09,SSE,166,5.4,8.1,34,0.00,,---,0.00,VWS V14.00,2013-04-23 00:01:00,
2013-04-22 19:04:00,68.0,38.6,29.09,SE,128,7.6,8.1,34,0.00,,---,0.00,VWS V14.00,2013-04-23 00:04:00,
2013-04-22 19:05:00,68.0,38.6,29.09,South,180,5.8,8.1,34,0.00,,---,0.00,VWS V14.00,2013-04-23 00:05:00,
2013-04-22 19:10:00,66.9,38.4,29.09,SSE,151,5.8,6.3,35,0.00,,---,0.00,VWS V14.00,2013-04-23 00:10:00,
2013-04-22 19:13:00,66.9,38.4,29.09,South,169,5.8,6.3,35,0.00,,---,0.00,VWS V14.00,2013-04-23 00:13:00,
2013-04-22 19:16:00,66.9,38.4,29.09,South,169,8.1,8.7,35,0.00,,---,0.00,VWS V14.00,2013-04-23 00:16:00,
2013-04-22 19:19:00,66.0,38.3,29.09,South,169,8.1,8.7,36,0.00,,---,0.00,VWS V14.00,2013-04-23 00:19:00,
2013-04-22 19:20:00,66.0,38.3,29.09,South,169,8.1,8.7,36,0.00,,---,0.00,VWS V14.00,2013-04-23 00:20:00,
2013-04-22 19:25:00,66.0,38.3,29.06,SSE,158,5.8,8.1,36,0.00,,---,0.00,VWS V14.00,2013-04-23 00:25:00,
2013-04-22 19:28:00,65.5,38.5,29.06,SSE,163,7.2,8.1,37,0.00,,---,0.00,VWS V14.00,2013-04-23 00:28:00,
2013-04-22 19:31:00,65.5,38.5,29.06,SE,143,5.8,8.1,37,0.00,,---,0.00,VWS V14.00,2013-04-23 00:31:00,
2013-04-22 19:34:00,65.5,38.5,29.06,SE,143,5.8,8.1,37,0.00,,---,0.00,VWS V14.00,2013-04-23 00:34:00,
2013-04-22 19:35:00,65.5,38.5,29.06,SSE,165,6.7,10.1,37,0.00,,---,0.00,VWS V14.00,2013-04-23 00:35:00,
2013-04-22 19:40:00,65.1,38.9,29.06,SSE,149,8.3,8.3,38,0.00,,---,0.00,VWS V14.00,2013-04-23 00:40:00,
2013-04-22 19:43:00,64.9,38.7,29.09,SSE,149,8.3,8.3,38,0.00,,---,0.00,VWS V14.00,2013-04-23 00:43:00,
2013-04-22 19:46:00,64.9,38.7,29.09,SSE,158,6.3,8.3,38,0.00,,---,0.00,VWS V14.00,2013-04-23 00:46:00,
2013-04-22 19:49:00,64.9,38.7,29.09,SSE,147,7.6,8.3,38,0.00,,---,0.00,VWS V14.00,2013-04-23 00:49:00,
2013-04-22 19:50:00,64.9,38.7,29.09,SSE,157,5.4,8.3,38,0.00,,---,0.00,VWS V14.00,2013-04-23 00:50:00,
2013-04-22 19:52:00,64.9,38.7,29.09,SSE,158,5.8,5.8,38,0.00,,---,0.00,VWS V14.00,2013-04-23 00:52:00,
2013-04-22 19:58:00,64.9,38.7,29.09,SSE,166,6.3,6.7,38,0.00,,---,0.00,VWS V14.00,2013-04-23 00:58:00,
2013-04-22 20:04:00,63.8,39.1,29.09,SSE,158,5.4,6.7,40,0.00,,---,0.00,VWS V14.00,2013-04-23 01:04:00,
2013-04-22 20:05:00,63.8,39.1,29.09,SE,134,6.3,6.7,40,0.00,,---,0.00,VWS V14.00,2013-04-23 01:05:00,
2013-04-22 20:10:00,63.5,39.4,29.09,SE,142,7.6,7.6,41,0.00,,---,0.00,VWS V14.00,2013-04-23 01:10:00,
2013-04-22 20:13:00,63.5,39.4,29.09,SSE,151,6.3,7.6,41,0.00,,---,0.00,VWS V14.00,2013-04-23 01:13:00,
2013-04-22 20:16:00,63.5,39.4,29.09,SSE,151,6.3,7.6,41,0.00,,---,0.00,VWS V14.00,2013-04-23 01:16:00,
2013-04-22 20:20:00,62.9,39.5,29.09,SSE,163,5.4,7.6,42,0.00,,---,0.00,VWS V14.00,2013-04-23 01:20:00,
2013-04-22 20:22:00,62.9,39.5,29.09,SSE,150,5.8,5.8,42,0.00,,---,0.00,VWS V14.00,2013-04-23 01:22:00,
2013-04-22 20:28:00,62.8,39.3,29.09,South,172,6.3,6.3,42,0.00,,---,0.00,VWS V14.00,2013-04-23 01:28:00,
2013-04-22 20:31:00,62.8,39.3,29.09,SSE,164,5.4,6.3,42,0.00,,---,0.00,VWS V14.00,2013-04-23 01:31:00,
2013-04-22 20:34:00,62.8,39.3,29.09,SSE,149,5.4,6.3,42,0.00,,---,0.00,VWS V14.00,2013-04-23 01:34:00,
2013-04-22 20:37:00,62.8,39.3,29.09,South,173,6.3,6.3,42,0.00,,---,0.00,VWS V14.00,2013-04-23 01:37:00,
2013-04-22 20:40:00,62.8,39.3,29.09,SSE,153,4.0,6.3,42,0.00,,---,0.00,VWS V14.00,2013-04-23 01:40:00,
2013-04-22 20:43:00,62.6,39.2,29.09,SSE,153,4.0,6.3,42,0.00,,---,0.00,VWS V14.00,2013-04-23 01:43:00,
2013-04-22 20:46:00,62.6,39.2,29.09,South,172,6.7,6.7,42,0.00,,---,0.00,VWS V14.00,2013-04-23 01:46:00,
2013-04-22 20:49:00,62.6,39.2,29.09,SSW,199,8.1,8.1,42,0.00,,---,0.00,VWS V14.00,2013-04-23 01:49:00,
2013-04-22 20:50:00,62.6,39.2,29.09,SSW,199,8.1,8.1,42,0.00,,---,0.00,VWS V14.00,2013-04-23 01:50:00,
2013-04-22 20:52:00,62.4,39.0,29.09,SSW,199,8.1,8.1,42,0.00,,---,0.00,VWS V14.00,2013-04-23 01:52:00,
2013-04-22 20:55:00,62.4,39.0,29.09,SSW,199,8.1,8.1,42,0.00,,---,0.00,VWS V14.00,2013-04-23 01:55:00,
2013-04-22 20:58:00,62.2,39.5,29.09,SSE,154,5.8,8.1,43,0.00,,---,0.00,VWS V14.00,2013-04-23 01:58:00,
2013-04-22 21:01:00,62.2,39.5,29.09,SSE,154,5.8,8.1,43,0.00,,---,0.00,VWS V14.00,2013-04-23 02:01:00,
2013-04-22 21:05:00,62.2,39.5,29.09,SE,141,6.3,8.1,43,0.00,,---,0.00,VWS V14.00,2013-04-23 02:05:00,
2013-04-22 21:07:00,62.2,39.5,29.09,SE,141,6.3,6.3,43,0.00,,---,0.00,VWS V14.00,2013-04-23 02:07:00,
2013-04-22 21:10:00,62.2,39.5,29.09,SE,141,6.3,6.3,43,0.00,,---,0.00,VWS V14.00,2013-04-23 02:10:00,
2013-04-22 21:13:00,62.2,39.5,29.09,SE,145,5.8,6.3,43,0.00,,---,0.00,VWS V14.00,2013-04-23 02:13:00,
2013-04-22 21:19:00,61.7,39.0,29.09,SSE,168,4.9,6.3,43,0.00,,---,0.00,VWS V14.00,2013-04-23 02:19:00,
2013-04-22 21:22:00,61.7,39.0,29.09,SSE,168,5.8,5.8,43,0.00,,---,0.00,VWS V14.00,2013-04-23 02:22:00,
2013-04-22 21:25:00,61.5,38.8,29.09,SSE,168,5.8,5.8,43,0.00,,---,0.00,VWS V14.00,2013-04-23 02:25:00,
2013-04-22 21:28:00,61.5,38.8,29.09,SSE,162,4.9,6.3,43,0.00,,---,0.00,VWS V14.00,2013-04-23 02:28:00,
2013-04-22 21:31:00,61.3,38.7,29.09,SSE,147,4.9,6.3,43,0.00,,---,0.00,VWS V14.00,2013-04-23 02:31:00,
2013-04-22 21:34:00,61.3,38.7,29.09,SSE,153,4.0,6.3,43,0.00,,---,0.00,VWS V14.00,2013-04-23 02:34:00,
2013-04-22 21:35:00,61.3,38.7,29.09,SSE,153,4.0,6.3,43,0.00,,---,0.00,VWS V14.00,2013-04-23 02:35:00,
2013-04-22 21:40:00,61.3,38.7,29.09,South,171,4.0,4.0,43,0.00,,---,0.00,VWS V14.00,2013-04-23 02:40:00,
2013-04-22 21:43:00,61.0,38.3,29.09,SSE,167,4.0,4.0,43,0.00,,---,0.00,VWS V14.00,2013-04-23 02:43:00,
2013-04-22 21:46:00,61.0,38.9,29.09,SSE,166,4.0,4.0,44,0.00,,---,0.00,VWS V14.00,2013-04-23 02:46:00,
2013-04-22 21:50:00,61.0,38.9,29.09,SSE,166,4.0,4.0,44,0.00,,---,0.00,VWS V14.00,2013-04-23 02:50:00,
2013-04-22 21:53:00,60.8,38.8,29.09,SSE,166,4.0,4.0,44,0.00,,---,0.00,VWS V14.00,2013-04-23 02:53:00,
2013-04-22 21:56:00,60.8,38.8,29.09,SE,146,3.1,4.0,44,0.00,,---,0.00,VWS V14.00,2013-04-23 02:56:00,
2013-04-22 21:59:00,60.8,38.8,29.09,SE,146,3.1,4.0,44,0.00,,---,0.00,VWS V14.00,2013-04-23 02:59:00,
2013-04-22 22:02:00,60.4,38.4,29.09,SSE,162,3.6,4.0,44,0.00,,---,0.00,VWS V14.00,2013-04-23 03:02:00,
2013-04-22 22:05:00,60.4,38.4,29.09,SSE,165,3.6,4.0,44,0.00,,---,0.00,VWS V14.00,2013-04-23 03:05:00,
2013-04-22 22:08:00,60.2,38.8,29.09,SSE,159,2.7,3.6,45,0.00,,---,0.00,VWS V14.00,2013-04-23 03:08:00,
2013-04-22 22:14:00,60.1,38.7,29.12,South,179,0.0,3.6,45,0.00,,---,0.00,VWS V14.00,2013-04-23 03:14:00,
2013-04-22 22:17:00,59.9,38.5,29.12,South,179,0.0,3.6,45,0.00,,---,0.00,VWS V14.00,2013-04-23 03:17:00,
2013-04-22 22:20:00,59.9,38.5,29.12,SSE,166,0.0,3.6,45,0.00,,---,0.00,VWS V14.00,2013-04-23 03:20:00,
2013-04-22 22:23:00,59.9,38.5,29.12,South,178,3.1,3.1,45,0.00,,---,0.00,VWS V14.00,2013-04-23 03:23:00,
2013-04-22 22:29:00,59.7,38.3,29.12,South,178,0.0,3.1,45,0.00,,---,0.00,VWS V14.00,2013-04-23 03:29:00,
2013-04-22 22:32:00,59.7,38.3,29.12,South,178,0.0,3.1,45,0.00,,---,0.00,VWS V14.00,2013-04-23 03:32:00,
2013-04-22 22:35:00,59.3,38.0,29.12,South,178,0.0,3.1,45,0.00,,---,0.00,VWS V14.00,2013-04-23 03:35:00,
2013-04-22 22:41:00,59.2,37.8,29.12,SSW,192,0.0,0.0,45,0.00,,---,0.00,VWS V14.00,2013-04-23 03:41:00,
2013-04-22 22:44:00,59.0,37.7,29.12,SSW,192,0.0,0.0,45,0.00,,---,0.00,VWS V14.00,2013-04-23 03:44:00,
2013-04-22 22:50:00,59.0,38.2,29.12,SSW,192,0.0,0.0,46,0.00,,---,0.00,VWS V14.00,2013-04-23 03:50:00,
2013-04-22 22:56:00,59.0,38.2,29.09,SSW,192,0.0,0.0,46,0.00,,---,0.00,VWS V14.00,2013-04-23 03:56:00,
2013-04-22 22:59:00,58.6,37.9,29.09,SSW,192,0.0,0.0,46,0.00,,---,0.00,VWS V14.00,2013-04-23 03:59:00,
2013-04-22 23:02:00,58.6,37.9,29.09,South,188,0.0,0.0,46,0.00,,---,0.00,VWS V14.00,2013-04-23 04:02:00,
2013-04-22 23:05:00,58.6,37.9,29.09,South,188,0.0,0.0,46,0.00,,---,0.00,VWS V14.00,2013-04-23 04:05:00,
2013-04-22 23:08:00,58.6,37.9,29.09,South,188,0.0,0.0,46,0.00,,---,0.00,VWS V14.00,2013-04-23 04:08:00,
2013-04-22 23:11:00,58.6,37.9,29.09,South,188,0.0,0.0,46,0.00,,---,0.00,VWS V14.00,2013-04-23 04:11:00,
2013-04-22 23:14:00,58.6,37.9,29.12,South,188,0.0,0.0,46,0.00,,---,0.00,VWS V14.00,2013-04-23 04:14:00,
2013-04-22 23:20:00,58.4,38.3,29.12,ENE,76,0.0,0.0,47,0.00,,---,0.00,VWS V14.00,2013-04-23 04:20:00,
2013-04-22 23:23:00,58.4,38.3,29.12,ENE,76,0.0,0.0,47,0.00,,---,0.00,VWS V14.00,2013-04-23 04:23:00,
2013-04-22 23:26:00,58.3,38.1,29.12,ENE,76,0.0,0.0,47,0.00,,---,0.00,VWS V14.00,2013-04-23 04:26:00,
2013-04-22 23:29:00,58.3,38.1,29.09,ENE,76,0.0,0.0,47,0.00,,---,0.00,VWS V14.00,2013-04-23 04:29:00,
2013-04-22 23:32:00,58.1,38.0,29.09,ENE,76,0.0,0.0,47,0.00,,---,0.00,VWS V14.00,2013-04-23 04:32:00,
2013-04-22 23:35:00,58.1,38.0,29.09,ENE,76,0.0,0.0,47,0.00,,---,0.00,VWS V14.00,2013-04-23 04:35:00,
2013-04-22 23:38:00,57.9,37.8,29.09,ENE,76,0.0,0.0,47,0.00,,---,0.00,VWS V14.00,2013-04-23 04:38:00,
2013-04-22 23:41:00,57.9,37.8,29.12,ENE,76,0.0,0.0,47,0.00,,---,0.00,VWS V14.00,2013-04-23 04:41:00,
2013-04-22 23:47:00,57.9,37.8,29.12,ENE,76,0.0,0.0,47,0.00,,---,0.00,VWS V14.00,2013-04-23 04:47:00,
2013-04-22 23:50:00,57.9,37.8,29.12,SSE,154,0.0,0.0,47,0.00,,---,0.00,VWS V14.00,2013-04-23 04:50:00,
2013-04-22 23:53:00,57.7,38.2,29.12,SSE,154,0.0,0.0,48,0.00,,---,0.00,VWS V14.00,2013-04-23 04:53:00,
2013-04-22 23:59:00,57.7,38.2,29.09,SSE,154,0.0,0.0,48,0.00,,---,0.00,VWS V14.00,2013-04-23 04:59:00,